Location: Tierra Monte Subdivision
(35.2092°N, 106.4864°W)
Time: 22:17:12
(UTC+00:00)

STARLINK-1019 - Pass Details

Date: 30 March 2020
Orbit: 549 x 550 km, 53.0° (Epoch: 05 June)

Event Time Altitude Azimuth Distance (km) Brightness Sun altitude
Exits shadow 11:05:57 51° 334° (NNW) 677 3.9 -22.3°
Drops below altitude 10° 11:09:40 10° 37° (NE) 1,785 7.0 -21.6°
Sets 11:11:56 0° 42° (NE) 2,678 8.2 -21.2°
